DW2380 Paimio FI current weather conditions

sailwx.info

Wind from 360 at 7 knots gusting 13

Air temperature 2.8° C
Dewpoint 1.3° C

Last reported at 2017-Feb-28 13:51 UTC.
Time now 2017-Feb-28 14:49 UTC

Location: N 60°28' E 022°40'.
View on Google Maps.

See reports from other nearby stations

  
Tides and Currents Weather Stations Pressure Air Temp Water Temp Dewpoint Dewpoint Depression Visibility Wind Speed Wind Dir Waves Ship Positions
date/time (UTC)wind fromknots sea level pressurealtimeterstation pressurevisibilityair tempwater tempwave heightnotes
2017-Feb-28 13:51 360 7 gusting 13 2.8
2017-Feb-28 13:36 360 5 gusting 11 3.3
2017-Feb-28 13:21 360 6 gusting 12 3.3
2017-Feb-28 13:06 360 3 gusting 10 3.3
2017-Feb-28 12:51 360 4 gusting 8 3.3
2017-Feb-28 12:36 360 6 gusting 13 3.3
2017-Feb-28 12:19 360 6 gusting 12 3.3
2017-Feb-28 12:04 360 6 gusting 10 3.3
2017-Feb-28 11:49 360 4 gusting 10 3.3
2017-Feb-28 11:34 360 6 gusting 13 2.8
2017-Feb-28 11:19 360 7 gusting 16 2.8
2017-Feb-28 11:04 360 7 gusting 13 3.3
2017-Feb-28 10:48 360 8 gusting 14 2.8
2017-Feb-28 10:33 360 7 gusting 14 2.8
2017-Feb-28 10:18 360 8 gusting 19 2.8
2017-Feb-28 10:03 360 8 gusting 14 2.8
2017-Feb-28 09:48 360 6 gusting 13 2.8
2017-Feb-28 09:32 360 8 gusting 15 2.8
2017-Feb-28 09:17 360 6 gusting 13 2.8
2017-Feb-28 09:02 360 6 gusting 13 2.8
2017-Feb-28 08:47 360 6 gusting 12 2.8
2017-Feb-28 08:32 360 6 gusting 11 2.8
2017-Feb-28 08:17 360 6 gusting 13 2.8
2017-Feb-28 08:01 360 4 gusting 8 2.8
2017-Feb-28 07:47 360 6 gusting 10 2.2
2017-Feb-28 07:31 360 3 gusting 6 2.2
2017-Feb-28 07:16 360 2.2
2017-Feb-28 07:01 360 3 gusting 8 2.2
2017-Feb-28 06:46 360 3 gusting 10 2.2
2017-Feb-28 06:31 360 6 gusting 10 1.7
2017-Feb-28 06:16 360 3 gusting 6 1.7
2017-Feb-28 06:01 360 4 gusting 8 1.7
2017-Feb-28 05:46 360 4 gusting 8 2.2
2017-Feb-28 05:31 360 5 gusting 9 1.7
2017-Feb-28 05:16 360 4 gusting 7 1.7
2017-Feb-28 05:01 360 6 gusting 12 2.2
2017-Feb-28 04:44 360 6 gusting 8 2.2
2017-Feb-28 04:29 360 3 gusting 10 2.2
2017-Feb-28 04:14 360 3 gusting 8 2.2
2017-Feb-28 03:59 360 3 gusting 8 2.2
2017-Feb-28 03:44 360 3 gusting 6 2.2
2017-Feb-28 03:29 360 5 gusting 9 2.2
2017-Feb-28 03:14 360 3 gusting 11 1.7
2017-Feb-28 02:58 360 6 gusting 7 1.7
2017-Feb-28 02:43 360 4 gusting 9 1.7
2017-Feb-28 02:28 360 4 gusting 11 1.7
2017-Feb-28 02:13 360 4 gusting 9 1.7
2017-Feb-28 01:58 360 4 gusting 8 1.1
2017-Feb-28 01:43 360 5 gusting 9 1.1
2017-Feb-28 01:28 360 4 gusting 7 1.1
2017-Feb-28 01:12 360 3 gusting 6 1.1
2017-Feb-28 00:57 360 2 gusting 8 1.1
2017-Feb-28 00:42 360 4 gusting 8 1.1
2017-Feb-28 00:27 360 3 gusting 9 1.1
2017-Feb-28 00:12 360 1 gusting 6 1.1
2017-Feb-27 23:56 360 5 gusting 8 0.6
2017-Feb-27 23:41 360 2 gusting 6 0.6
2017-Feb-27 23:26 360 3 gusting 6 0.6
2017-Feb-27 23:11 360 0 gusting 4 0.6
2017-Feb-27 22:56 360 5 gusting 8 0.6
2017-Feb-27 22:41 360 2 gusting 5 0.6
2017-Feb-27 22:26 360 4 gusting 7 0.6
2017-Feb-27 22:11 360 6 gusting 10 0.6
2017-Feb-27 21:56 360 5 gusting 11 0.6
2017-Feb-27 21:41 360 6 gusting 11 0.6
2017-Feb-27 21:26 360 5 gusting 11 -0.0
2017-Feb-27 21:11 360 6 gusting 13 -0.0
2017-Feb-27 20:54 360 6 gusting 11 -0.0
2017-Feb-27 20:39 360 7 gusting 14 -0.0
2017-Feb-27 20:24 360 6 gusting 11 -0.0
2017-Feb-27 20:09 360 4 gusting 11 -0.0
2017-Feb-27 19:54 360 6 gusting 13 -0.0
2017-Feb-27 19:39 360 6 gusting 14 -0.0
2017-Feb-27 19:23 360 4 gusting 13 -0.6
2017-Feb-27 19:08 360 3 gusting 14 -0.6
2017-Feb-27 18:53 360 5 gusting 12 -0.6
2017-Feb-27 18:38 360 5 gusting 13 -0.6
2017-Feb-27 18:23 360 4 gusting 16 -0.6
2017-Feb-27 18:08 360 6 gusting 14 -0.6
2017-Feb-27 17:53 360 3 gusting 8 -1.1
2017-Feb-27 17:37 360 6 gusting 13 -1.1
2017-Feb-27 17:22 360 6 gusting 13 -1.1
2017-Feb-27 17:07 360 7 gusting 13 -1.1
2017-Feb-27 16:52 360 5 gusting 11 -1.1
2017-Feb-27 16:37 360 2 gusting 8 -1.1
2017-Feb-27 16:22 360 6 gusting 10 -1.1
2017-Feb-27 16:07 360 4 gusting 8 -1.1
2017-Feb-27 15:52 360 4 gusting 9 -1.1
2017-Feb-27 15:36 360 5 gusting 8 -1.1
2017-Feb-27 15:21 360 4 gusting 9 -1.7
2017-Feb-27 15:06 360 5 gusting 9 -1.7
2017-Feb-27 14:51 360 4 gusting 9 -1.7
2017-Feb-27 14:36 360 4 gusting 6 -2.2
2017-Feb-27 14:21 360 3 gusting 9 -2.2
2017-Feb-27 14:06 360 4 gusting 8 -2.8
2017-Feb-27 13:51 360 3 gusting 7 -2.8
2017-Feb-27 13:36 360 4 gusting 8 -3.3
2017-Feb-27 13:21 360 6 gusting 8 -3.3
2017-Feb-27 13:06 360 4 gusting 6 -3.3
2017-Feb-27 12:49 360 -3.3
2017-Feb-27 12:34 360 2 gusting 6 -3.3
2017-Feb-27 12:19 360 1 gusting 6 -3.9
2017-Feb-27 12:04 360 3 gusting 7 -4.4
2017-Feb-27 11:49 360 3 gusting 7 -4.4
2017-Feb-27 11:34 360 4 gusting 9 -4.4
2017-Feb-27 11:19 360 4 gusting 6 -5.0
2017-Feb-27 11:04 360 2 gusting 7 -5.0
2017-Feb-27 10:48 360 1 gusting 5 -5.0
2017-Feb-27 10:33 360 1 gusting 5 -5.6
2017-Feb-27 10:18 360 1 gusting 3 -5.6
2017-Feb-27 10:03 360 0 gusting 3 -5.6
2017-Feb-27 09:48 360 2 gusting 6 -5.6
2017-Feb-27 09:33 360 -5.6
2017-Feb-27 09:17 360 -6.1
2017-Feb-27 09:02 360 0 gusting 2 -7.2
2017-Feb-27 08:47 360 0 gusting 3 -7.2
2017-Feb-27 08:32 360 0 gusting 2 -7.8
2017-Feb-27 08:17 360 0 gusting 2 -8.3
2017-Feb-27 08:02 360 1 gusting 3 -8.9
2017-Feb-27 07:47 360 1 gusting 3 -9.4
2017-Feb-27 07:31 360 -9.4
2017-Feb-27 07:16 360 -10.0
2017-Feb-27 07:01 360 -10.0
2017-Feb-27 06:46 360 -10.6
2017-Feb-27 06:31 360 -10.6
2017-Feb-27 06:16 360 -10.6
2017-Feb-27 06:01 360 0 gusting 2 -10.6
2017-Feb-27 05:46 360 -10.0
2017-Feb-27 05:31 360 -10.0
2017-Feb-27 05:16 360 -10.0
2017-Feb-27 05:01 360 -9.4
2017-Feb-27 04:44 360 -9.4
2017-Feb-27 04:29 360 -9.4
2017-Feb-27 04:14 360 -9.4
2017-Feb-27 03:59 360 -8.9
2017-Feb-27 03:44 360 -8.9
2017-Feb-27 03:29 360 0 gusting 1 -9.4
2017-Feb-27 03:14 360 -9.4
2017-Feb-27 02:59 360 -9.4
2017-Feb-27 02:43 360 -10.0
2017-Feb-27 02:28 360 -10.0
2017-Feb-27 02:13 360 -10.0
2017-Feb-27 01:58 360 -10.6
2017-Feb-27 01:43 360 -10.6
2017-Feb-27 01:27 360 -10.6
2017-Feb-27 01:12 360 -10.0
2017-Feb-27 00:57 360 -8.9
2017-Feb-27 00:42 360 -8.3
2017-Feb-27 00:27 360 -7.8
2017-Feb-27 00:11 360 -7.2
2017-Feb-26 23:56 360 -6.7
2017-Feb-26 23:41 360 -6.1
2017-Feb-26 23:26 360 -6.1
2017-Feb-26 23:11 360 0 gusting 2 -6.1
2017-Feb-26 22:56 360 -5.6
2017-Feb-26 22:41 360 -5.0
2017-Feb-26 22:26 360 -4.4
2017-Feb-26 22:11 360 -3.9
2017-Feb-26 21:56 360 -3.3
2017-Feb-26 21:41 360 1 gusting 3 -2.8
2017-Feb-26 21:26 360 -2.8
2017-Feb-26 21:09 360 2 gusting 4 -2.8
2017-Feb-26 20:54 360 1 gusting 3 -2.2
2017-Feb-26 20:39 360 0 gusting 3 -2.2
2017-Feb-26 20:24 360 1 gusting 5 -2.2
2017-Feb-26 20:09 360 2 gusting 6 -2.2
2017-Feb-26 19:54 360 2 gusting 6 -2.2
2017-Feb-26 19:38 360 3 gusting 6 -2.2
2017-Feb-26 19:23 360 2 gusting 6 -2.2
2017-Feb-26 19:08 360 2 gusting 6 -2.2
2017-Feb-26 18:53 360 2 gusting 5 -1.7
2017-Feb-26 18:38 360 3 gusting 6 -1.7
2017-Feb-26 18:23 360 2 gusting 6 -1.7
2017-Feb-26 18:08 360 2 gusting 6 -1.7
2017-Feb-26 17:53 360 2 gusting 5 -1.7
2017-Feb-26 17:37 360 1 gusting 4 -1.7
2017-Feb-26 17:22 360 1 gusting 5 -1.7
2017-Feb-26 17:07 360 0 gusting 3 -1.7
2017-Feb-26 16:52 360 -1.7
2017-Feb-26 16:37 360 1 gusting 3 -1.1
2017-Feb-26 16:22 360 -1.1
2017-Feb-26 16:06 360 1 gusting 4 -1.1
2017-Feb-26 15:51 360 0 gusting 5 -1.1
2017-Feb-26 15:36 360 2 gusting 5 -1.1
2017-Feb-26 15:21 360 2 gusting 5 -1.1
2017-Feb-26 15:06 360 1 gusting 6 -0.6
2017-Feb-26 14:51 360 2 gusting 4 -0.6
2017-Feb-26 14:36 360 -0.6
2017-Feb-26 14:21 360 2 gusting 5 -0.6
2017-Feb-26 14:06 360 -0.0